This demonstration page uses our WeatherBlox Daily Observations layout. Learn more.

Left ArrowRight Arrow

38.80484, -77.04692

Hourly Observations for August 23, 2019

Temp ( °F °C ) Dew Point ( °F °C ) Humidity (%) Winds ( mph kmh ) Pressure ( in mb ) Visibility ( mi km ) Precip ( " mm )
12:52 am 00:52 Cloudy 79 26.1 69 20.6 72 72 SSW 7 11 29.94 1014 10 16 0.00 0.00
1:52 am 01:52 Mostly Cloudy 77 25 69 20.6 77 77 SW 10 17 29.94 1014 10 16 0.00 0.00
2:52 am 02:52 Mostly Clear 76 24.4 69 20.6 79 79 WSW 6 9 29.93 1014 10 16 0.00 0.00
3:52 am 03:52 Partly Cloudy 76 24.4 69 20.6 79 79 WSW 6 9 29.93 1014 10 16 0.00 0.00
4:52 am 04:52 Partly Cloudy 75 23.9 69 20.6 82 82 Calm 29.94 1014 10 16 0.00 0.00
5:52 am 05:52 Mostly Cloudy 75 23.9 70 21.1 84 84 NNW 9 15 29.95 1014 10 16 0.00 0.00
6:52 am 06:52 Mostly Cloudy 76 24.4 70 21.1 82 82 N 8 13 29.96 1015 10 16 0.00 0.00
7:52 am 07:52 Mostly Cloudy 76 24.4 69 20.6 79 79 NNE 12 19 29.98 1015 10 16 0.00 0.00
8:18 am 08:18 Mostly Cloudy 76 24.4 69 20.6 79 79 N 14 22 30.00 1016 10 16 0.00 0.00
8:52 am 08:52 Mostly Cloudy 77 25 69 20.6 77 77 NNE 14 22 30.00 1016 10 16 0.00 0.00
9:52 am 09:52 Cloudy 78 25.6 69 20.6 74 74 NNE 15 24 30.00 1016 10 16 0.00 0.00
10:52 am 10:52 Cloudy with Light Rain 73 22.8 69 20.6 87 87 NNE 13 20 30.03 1017 10 16 0.00 0.00
11:52 am 11:52 Cloudy with Light Rain 71 21.7 67 19.4 87 87 N 15 24 30.03 1017 10 16 0.00 0.00
12:52 pm 12:52 Cloudy 69 20.6 65 18.3 87 87 N 13 20 30.03 1017 10 16 0.00 0.00
1:02 pm 13:02 Cloudy with Light Rain 69 20.6 66 18.9 90 90 N 14 22 30.03 1017 5 8 0.00 0.00
1:13 pm 13:13 Cloudy with Rain 69 20.6 66 18.9 90 90 N 13 20 30.03 1017 3 5 0.03 0.76
1:52 pm 13:52 Cloudy with Rain 69 20.6 66 18.9 90 90 N 13 20 30.03 1017 6 10 0.13 3.30
2:27 pm 14:27 Cloudy with Heavy Rain 69 20.6 66 18.9 90 90 N 10 17 30.03 1017 3 5 0.10 2.54
2:52 pm 14:52 Cloudy with Light Rain 69 20.6 66 18.9 90 90 N 13 20 30.02 1017 6 10 0.14 3.56
3:34 pm 15:34 Cloudy with Light Rain 70 21.1 66 18.9 87 87 NNE 10 17 30.02 1017 9 14 0.08 2.03
3:52 pm 15:52 Cloudy with Light Rain 70 21.1 66 18.9 87 87 NNE 10 17 30.01 1016 10 16 0.08 2.03
4:49 pm 16:49 Cloudy with Light Rain 70 21 64 18 83 83 NNW 13 20 30.03 1017 10 16 0.03 0.76
4:52 pm 16:52 Cloudy with Light Rain 69 20.6 65 18.3 87 87 NNW 12 19 30.03 1017 10 16 0.03 0.76
5:52 pm 17:52 Cloudy 70 21.1 65 18.3 84 84 NNW 10 17 30.04 1017 10 16 0.00 0.00
6:03 pm 18:03 Cloudy with Light Rain 70 21.1 65 18.3 84 84 N 13 20 30.04 1017 10 16 0.00 0.00
6:13 pm 18:13 Cloudy with Light Rain 69 20.6 64 17.8 84 84 N 13 20 30.04 1017 10 16 0.00 0.00
6:47 pm 18:47 Cloudy 70 21 57 14 64 64 N 14 22 30.04 1017 10 16 0.00 0.00
6:52 pm 18:52 Cloudy 69 20.6 59 15 70 70 N 14 22 30.04 1017 10 16 0.00 0.00
7:52 pm 19:52 Cloudy 70 21.1 58 14.4 66 66 N 8 13 30.04 1017 10 16 0.00 0.00
8:52 pm 20:52 Cloudy 69 20.6 60 15.6 73 73 N 7 11 30.06 1018 10 16 0.00 0.00
9:52 pm 21:52 Cloudy 69 20.6 61 16.1 76 76 N 8 13 30.09 1019 10 16 0.00 0.00
10:52 pm 22:52 Cloudy 68 20 63 17.2 84 84 NW 7 11 30.08 1019 10 16 0.00 0.00
11:52 pm 23:52 Mostly Cloudy 69 20.6 62 16.7 78 78 NW 6 9 30.10 1019 10 16 0.00 0.00

Powered by AerisWeather